Regional Weather Roundup
Issued by NWS Upton, NY

Current Version | Previous Version | Text Only | Print | Product List | Glossary On
Versions: 1 2 3 4 5 6 7 8 9 10 11 12 13 14 15 16 17 18 19 20 21 22 23 24 25 26 27 28 29 30 31 32 33 34 35 36 37 38 39 40 41 42 43 44 45 46 47 48 49 50
704
ASUS41 KOKX 070704
RWROKX

REGIONAL WEATHER ROUNDUP
NATIONAL WEATHER SERVICE NEW YORK NY
200 AM EST SUN FEB 07 2016

NOTE: "FAIR" INDICATES FEW OR NO CLOUDS BELOW 12,000 FEET WITH NO
SIGNIFICANT WEATHER AND/OR OBSTRUCTIONS TO VISIBILITY.

NYZ071-072-176-178-NJZ106-104-070800-
NEW YORK CITY METRO AREA


CITY           SKY/WX    TMP DP  RH WIND       PRES   REMARKS
CENTRAL PARK   CLEAR     36  22  56 VRB5      30.25S WCI  32
LAGUARDIA APRT PTCLDY    37  22  54 SW6       30.23F WCI  32
KENNEDY INTL   PTCLDY    33  24  69 W7        30.25F WCI  27
NEWARK/LIBERTY PTCLDY    30  22  72 SW3       30.24F
BRNX BOT. GARD   N/A     36  23  60 SW6       30.22F WCI  31
TETERBORO      CLEAR     30  21  69 CALM      30.23S
$$

NYZ177-179-078>081-070800-
LONG ISLAND NEW YORK

CITY           SKY/WX    TMP DP  RH WIND       PRES   REMARKS
FARMINGDALE    CLEAR     31  23  72 W3        30.24F
ISLIP          CLEAR     23  19  85 CALM      30.22F
SHIRLEY        CLEAR     25  23  92 SW5       30.24S WCI  19
RIVERHEAD        N/A     32  25  74 W1        30.24F
WESTHAMPTON    CLEAR     18  16  92 CALM      30.25F
EAST HAMPTON   FAIR      22  21  95 CALM      30.23F
MONTAUK POINT    N/A     36  28  73 SW5       30.24F WCI  32
$$

NYZ052-065-067-070800-
HUDSON VALLEY

CITY           SKY/WX    TMP DP  RH WIND       PRES   REMARKS
WHITE PLAINS   CLEAR     32  20  61 W3        30.20F
NEWBURGH       CLEAR     27  21  80 CALM      30.19F
MONTGOMERY     PTCLDY    22  19  89 CALM      30.18F
POUGHKEEPSIE   PTCLDY    25  18  74 CALM      30.20F
ALBANY         CLOUDY    33  20  58 SW7       30.16F WCI  27
$$

NJZ001-105-106-008-010-013-015-019>022-104-070800-
NEW JERSEY

CITY           SKY/WX    TMP DP  RH WIND       PRES   REMARKS
NEWARK/LIBERTY PTCLDY    30  22  72 SW3       30.24F
TETERBORO      CLEAR     30  21  69 CALM      30.23S
CALDWELL       CLEAR     31  21  66 S3        30.23S
MORRISTOWN     CLEAR     21  19  93 CALM      30.23S
SOMERVILLE     CLEAR     22  19  89 CALM      30.22F
SUSSEX         CLEAR     23  18  81 CALM      30.19F
ANDOVER          N/A     22  20  92 SW3       30.19F
TRENTON        CLEAR     27  22  81 CALM      30.24R
MILLVILLE      CLEAR     24  23  96 CALM      30.26F
ATLANTIC CITY  CLEAR     26  24  92 CALM      30.26F
WRIGHTSTOWN    CLEAR     26  26 100 CALM      30.22S
TOMS RIVER     CLEAR     25  19  80 CALM      30.26S
BELMAR         CLEAR     30  19  64 SW7       30.24S WCI  23
$$

PAZ047>061-062-071-070800-
EASTERN PENNSYLVANIA

CITY           SKY/WX    TMP DP  RH WIND       PRES   REMARKS
PHILADELPHIA   PTCLDY    33  26  75 S7        30.26S WCI  27
ALLENTOWN      PTCLDY    23  19  85 CALM      30.21F
SCRANTON       CLEAR     30  17  58 CALM      30.16F
$$

CTZ002-004>006-009-010-012-RIZ004-006-007-MAZ004-011-015-070800-
SOUTHERN NEW ENGLAND
 IN CT

CITY           SKY/WX    TMP DP  RH WIND       PRES   REMARKS
BRADLEY INTL   PTCLDY    26  21  81 S5        30.19F WCI  20
HARTFORD       PTCLDY    26  23  88 SE3       30.21F
DANBURY        CLEAR     23  17  78 CALM      30.21F
WTRBRY/OXFORD  CLEAR     28  12  50 SW3       30.19S
BRIDGEPORT     CLEAR     32  25  75 CALM      30.22F
MERIDEN        PTCLDY    18  14  84 CALM      30.22S FOG
NEW HAVEN      CLEAR     26  20  77 CALM      30.22F
CHESTER        FAIR      32  28  86 W5        30.21F WCI  27
GROTON         CLEAR     35  29  78 W5        30.22F WCI  31
WILLIMANTIC    CLEAR     18  14  84 CALM      30.21F FOG

 IN RI

CITY           SKY/WX    TMP DP  RH WIND       PRES   REMARKS
PROVIDENCE     CLEAR     29  25  85 SW5       30.21F WCI  24
BLOCK ISLAND   CLEAR     36  28  75 W12       30.21F WCI  27
WESTERLY       PTCLDY    33  27  78 CALM      30.22F

 IN MA

CITY           SKY/WX    TMP DP  RH WIND       PRES   REMARKS
BOSTON         PTCLDY    31  24  75 SW15      30.18F WCI  20
WORCESTER      CLEAR     25  18  74 SW10      30.14F WCI  15
WESTFIELD      CLEAR     25  17  72 S5        30.18F WCI  19
PROVINCETOWN   PTCLDY    35  29  78 SW16      30.20F WCI  25
NANTUCKET      PTCLDY    37  30  75 W6        30.22F WCI  32
$$

ANZ330-335-338-340-345-350-353-355-070800-
COASTAL MARINE OBSERVATIONS


STATION/POSITION TIME  SKY/WX   TEMP    WIND        PRES    VSBY  WAVE
                                AIR SEA DIR/SP/G                  HT/PER
                 (UTC)          (F)     (DEG/KT/KT) (MB)    (MI)  (FT/S)
NY HARB ENTRANCE 0550            38 44  250/ 14/ 16 1023.8          2/10
4S FIRE IS       NOT AVBL
20S FIRE ISLAND  0550            40 43  260/ 12/ 14 1024.3          3/ 4
GREAT SOUTH BAY  NOT AVBL
23SW MTP         0550            41 45  260/ 14/ 16 1024.0          3/ 5
HUDSON CANYON    0550            43 51              1024.4          3/ 7
KINGS POINT      0600            37 38  250/  6/  8 1023.4
EXECUTION ROCKS  NOT AVBL
CENTRAL LI SOUND 0615            38     240/ 10/ 12   N/A           2/ 3
EASTERN LI SOUND 0600            39 42  230/ 12/ 16   N/A
ROBBINS REEF     0600            35     240/  2/  4 1023.3
$$


>>>>>>>>>>>>>>>>>>>>>>>>>>>> KEY <<<<<<<<<<<<<<<<<<<<<<<<<<<
>                                                          <
>     SKY/WX - SKY CONDITION/PRESENT WEATHER               <
>     TMP    - TEMPERATURE IN FAHRENHEIT                   <
>     DP     - DEWPOINT IN FAHRENHEIT                      <
>     RH     - RELATIVE HUMIDITY IN PERCENT                <
>     WIND   - DIRECTION AND SPEED IN MPH                  <
>     PRES   - MEAN SEA LEVEL PRESSURE IN INCHES OF HG     <
>     WCI    - WIND CHILL INDEX                            <
>     VSB    - VISIBILITY IN MILES                         <
>     HX     - HEAT INDEX                                  <
>     TC     - TEMPERATURE IN CELSIUS                      <
>     VRB    - VARIABLE WIND DIRECTION                     <
>                                                          <
>>>>>>>>>>>>>>>>>>>>>>>>>>>> KEY <<<<<<<<<<<<<<<<<<<<<<<<<<<






USA.gov is the U.S. government's official web portal to all federal, state and local government web resources and services.